DECAYED

ELECTRON R/B (1), 66317 (Decayed)

Orbit data source: Space-Track

ELECTRON R/B (1), 66317 was space debris in LEO originally from a launch on Wed, 05 Nov 2025 UTC launched from the Rocket Lab Launch Complex (RLLC). Debris objects in space refer to the collection of defunct objects orbiting the Earth. Examples of debris include non-operational satellites, rocket bodies, and fragments generated from explosions, collisions, or faulty payload assembly.

Not visible in the next 10 days
Identifier
66317, 2025-252B
Orbit
Decayed
Country
Flag of USUS
Related business
Manufacturer
Rocket Lab
Mission
Decayed spacecraft
Bus & Motor
KICK STAGE, CURIE
Mass
~42 kg wet, ~42 kg dry
Launch date (UTC)
2025-11-05 (7 months ago)
Launch vehicle
Unknown
Launch site
Rocket Lab Launch Complex (RLLC)
Object type
Payload
Rocket body
Debris
Shape & HBR
Trunc Cone, 8.0 m
Radar Cross Section
0.760 m², Large (>1 m²)

Expand to show TLE details & history
Last TLE update: 6 months ago

TLE from 6 months ago
0 ELECTRON R/B (1)
1 66317U 25252B   25339.59423701  .10052791  84937-5  10112-2 0  9990
2 66317  41.9822  93.1396 0034449  86.6806 273.8008 16.34731361  4704
Epoch: 2025-12-05T14:15Z
TLE epoch observation values (Epoch: 2025-12-05T14:15:42.077Z)
Latitude
-0.00002°
Longitude
164.58017°
Altitude
178.082 km
Speed
7.802 km/s
True Right ascension
06h 12m 33s
True Declination
0° 00' 00"
Sunlit
Object was in full shadow at epoch
Visualization orbit readout
Latitude
Unknown
Longitude
Unknown
Altitude
Unknown
Speed
Unknown
Apparent Right ascension
Unknown
Apparent Declination
Unknown
Sunlit
N/A
Visualization observer readout
Local Sidereal Time
07:17:38
Azimuth
Unknown
Elevation
Unknown
Doppler factor
Unknown
Orbital elements
Apogee altitude
204.668 km
Perigee altitude
159.469 km
Semi-major axis
6,560.206 km
Eccentricity
0.00344
Inclination
41.9822°
RAAN
93.1396°
Arg. of periapsis
86.6806°
True anomaly
273.4068°
Mean anomaly
273.8008°
Eccentric anomaly
273.60381°
Mean motion
4.08476 °/min
Orbital period
88.13 mins
BSTAR
0.0010112
Loading maneuver chart data...
Computing Atmospheric mass density...
Loading historical data...
Loading historical data...
Loading historical data...
Loading historical data...
Loading historical data...
Loading historical data...
Loading historical data...
Other satellites on launch #252 in the year 2025 (2025-11-05 UTC)

Documentation

Showing up to 5 results
|